STARLINK-1781, 46685

Orbit data source: Space-Track

STARLINK-1781, 46685 is a payload satellite owned by SpaceX/Seattle (US) in LEO that was launched on Sun, 18 Oct 2020 UTC via an FALCON 9 launch vehicle from the Air Force Eastern Test Range (AFETR). Payload-class satellites include a variety of spacecraft equipped with specific instruments for various scientific and technological missions. These include communications satellites like Starlink; space stations such as the ISS; scientific satellites like the Hubble; Earth observation satellites from companies like Planet Labs, Umbra, and HawkEye 360; GPS; miniature CubeSats for education and research; and military/defense satellites.

Loading next visibility...
Identifier
46685, 2020-073R
Orbit
LEO
Country
Flag of USUS
Related business
Manufacturer
SpaceX/Seattle
Mission
Operational Commercial Communications
Bus & Motor
STARLINK, Unknown motor
Mass
260 kg wet, ~248 kg dry
Launch date (UTC)
2020-10-18 (5 years ago)
Launch vehicle
FALCON 9
Launch site
Air Force Eastern Test Range (AFETR)
Object type
Payload
Rocket body
Debris
Shape & HBR
Box + 1 Pan, 10.1 m
Radar Cross Section
13.562 m², Large (>1 m²)

Expand to show TLE details & history
Last TLE update: 16 hours ago

TLE from 16 hours ago
0 STARLINK-1781
1 46685U 20073R   25286.49318320  .00014911  00000-0  10175-2 0  9996
2 46685  53.0529 197.6776 0001551  72.4704 287.6455 15.06408316274727
Epoch: 2025-10-13T11:50Z
TLE epoch observation values (Epoch: 2025-10-13T11:50:11.028Z)
Latitude
0.00003°
Longitude
-2.1635°
Altitude
547.74 km
Speed
7.59 km/s
True Right ascension
13h 10m 42s
True Declination
0° 00' 00"
Sunlit
Object was in daylight at epoch
Visualization orbit readout
Latitude
Unknown
Longitude
Unknown
Altitude
Unknown
Speed
Unknown
Apparent Right ascension
Unknown
Apparent Declination
Unknown
Sunlit
N/A
Visualization observer readout
Local Sidereal Time
22:10:12
Azimuth
Unknown
Elevation
Unknown
Doppler factor
Unknown
Orbital elements
Apogee altitude
548.531 km
Perigee altitude
546.383 km
Semi-major axis
6,925.594 km
Eccentricity
0.00016
Inclination
53.0529°
RAAN
197.6776°
Arg. of periapsis
72.4704°
True anomaly
287.62856°
Mean anomaly
287.6455°
Eccentric anomaly
287.63703°
Mean motion
3.7658 °/min
Orbital period
95.6 mins
BSTAR
0.0010175
Loading maneuver chart data...
Computing Atmospheric mass density...
Loading historical data...
Loading historical data...
Loading historical data...
Loading historical data...
Loading historical data...
Loading historical data...
Loading historical data...

Documentation

Showing up to 5 results
|